TimeEST,TemperatureF,Dew PointF,Humidity,Sea Level PressureIn,VisibilityMPH,Wind Direction,Wind SpeedMPH,Gust SpeedMPH,PrecipitationIn,Events,Conditions,WindDirDegrees,DateUTC
12:56 AM,35.1,26.1,70,30.08,10.0,WNW,8.1,-,N/A,,Overcast,300,2013-01-18 05:56:00
1:56 AM,35.1,23.0,61,30.09,10.0,WNW,11.5,-,N/A,,Mostly Cloudy,290,2013-01-18 06:56:00
2:56 AM,36.0,21.9,57,30.12,10.0,West,12.7,20.7,N/A,,Scattered Clouds,270,2013-01-18 07:56:00
3:56 AM,34.0,19.9,56,30.14,10.0,NW,16.1,23.0,N/A,,Scattered Clouds,320,2013-01-18 08:56:00
4:56 AM,33.1,18.0,54,30.19,10.0,NNW,20.7,32.2,N/A,,Mostly Cloudy,330,2013-01-18 09:56:00
5:56 AM,30.9,14.0,50,30.25,10.0,NW,23.0,36.8,N/A,,Mostly Cloudy,320,2013-01-18 10:56:00
6:56 AM,28.0,9.0,45,30.32,10.0,NW,18.4,27.6,N/A,,Partly Cloudy,320,2013-01-18 11:56:00
7:56 AM,28.0,9.0,45,30.37,10.0,NNW,19.6,27.6,N/A,,Mostly Cloudy,330,2013-01-18 12:56:00
8:56 AM,27.0,7.0,43,30.43,10.0,North,18.4,23.0,N/A,,Clear,350,2013-01-18 13:56:00
9:56 AM,27.0,6.1,41,30.47,10.0,NNW,13.8,23.0,N/A,,Clear,340,2013-01-18 14:56:00
10:56 AM,28.0,8.1,43,30.48,10.0,WNW,13.8,20.7,N/A,,Partly Cloudy,300,2013-01-18 15:56:00
11:56 AM,28.9,6.1,38,30.48,10.0,WNW,9.2,18.4,N/A,,Partly Cloudy,290,2013-01-18 16:56:00
12:56 PM,28.9,8.1,41,30.45,10.0,Variable,5.8,-,N/A,,Clear,0,2013-01-18 17:56:00
1:56 PM,30.9,10.0,42,30.46,10.0,WNW,9.2,-,N/A,,Clear,290,2013-01-18 18:56:00
2:56 PM,30.9,7.0,37,30.47,10.0,NW,11.5,17.3,N/A,,Partly Cloudy,310,2013-01-18 19:56:00
3:56 PM,30.0,9.0,41,30.47,10.0,WSW,10.4,-,N/A,,Partly Cloudy,250,2013-01-18 20:56:00
4:56 PM,28.9,8.1,41,30.47,10.0,West,6.9,-,N/A,,Partly Cloudy,280,2013-01-18 21:56:00
5:56 PM,28.9,10.0,45,30.47,10.0,SSW,3.5,-,N/A,,Scattered Clouds,210,2013-01-18 22:56:00
6:56 PM,28.9,12.0,49,30.47,10.0,SSE,4.6,-,N/A,,Mostly Cloudy,160,2013-01-18 23:56:00
7:56 PM,28.9,12.9,51,30.46,10.0,South,8.1,-,N/A,,Scattered Clouds,180,2013-01-19 00:56:00
8:56 PM,28.9,12.0,49,30.45,10.0,South,6.9,-,N/A,,Partly Cloudy,170,2013-01-19 01:56:00
9:56 PM,28.9,12.0,49,30.43,10.0,South,4.6,-,N/A,,Partly Cloudy,170,2013-01-19 02:56:00
10:56 PM,28.0,12.0,51,30.41,10.0,SE,3.5,-,N/A,,Clear,140,2013-01-19 03:56:00
11:56 PM,27.0,14.0,58,30.39,10.0,SSE,4.6,-,N/A,,Clear,150,2013-01-19 04:56:00